Time,TemperatureF,DewpointF,PressureIn,WindDirection,WindDirectionDegrees,WindSpeedMPH,WindSpeedGustMPH,Humidity,HourlyPrecipIn,Conditions,Clouds,dailyrainin,SoftwareType,DateUTC
2013-12-19 00:05:00,33.3,26.0,30.27,WNW,293,0.0,0.0,75,0.00,,,0.00,weatherlink.com 1.10,2013-12-19 05:05:00,
2013-12-19 00:20:00,32.9,26.0,30.27,WNW,293,0.0,0.0,75,0.00,,,0.00,weatherlink.com 1.10,2013-12-19 05:20:00,
2013-12-19 00:35:00,32.7,27.0,30.27,WNW,293,0.0,0.0,78,0.00,,,0.00,weatherlink.com 1.10,2013-12-19 05:35:00,
2013-12-19 00:50:00,32.5,27.0,30.27,WNW,292,0.0,0.0,80,0.00,,,0.00,weatherlink.com 1.10,2013-12-19 05:50:00,
2013-12-19 01:05:00,32.0,27.0,30.27,WNW,293,0.0,0.0,80,0.00,,,0.00,weatherlink.com 1.10,2013-12-19 06:05:00,
2013-12-19 01:20:00,31.6,27.0,30.27,WNW,293,0.0,0.0,82,0.00,,,0.00,weatherlink.com 1.10,2013-12-19 06:20:00,
2013-12-19 01:35:00,31.1,26.0,30.26,WNW,293,0.0,0.0,82,0.00,,,0.00,weatherlink.com 1.10,2013-12-19 06:35:00,
2013-12-19 01:50:00,31.0,27.0,30.26,WNW,292,0.0,0.0,84,0.00,,,0.00,weatherlink.com 1.10,2013-12-19 06:50:00,
2013-12-19 02:05:00,30.9,27.0,30.26,WNW,293,0.0,0.0,84,0.00,,,0.00,weatherlink.com 1.10,2013-12-19 07:05:00,
2013-12-19 02:20:00,31.0,26.0,30.27,WNW,293,0.0,0.0,82,0.00,,,0.00,weatherlink.com 1.10,2013-12-19 07:20:00,
2013-12-19 02:35:00,31.3,27.0,30.27,WNW,293,0.0,0.0,83,0.00,,,0.00,weatherlink.com 1.10,2013-12-19 07:35:00,
2013-12-19 03:05:00,30.8,27.0,30.27,WNW,293,0.0,0.0,84,0.00,,,0.00,weatherlink.com 1.10,2013-12-19 08:05:00,
2013-12-19 03:20:00,30.5,26.0,30.27,WNW,292,0.0,0.0,84,0.00,,,0.00,weatherlink.com 1.10,2013-12-19 08:20:00,
2013-12-19 03:35:00,30.2,26.0,30.28,WNW,293,0.0,0.0,84,0.00,,,0.00,weatherlink.com 1.10,2013-12-19 08:35:00,
2013-12-19 03:50:00,30.0,26.0,30.28,WNW,292,0.0,0.0,86,0.00,,,0.00,weatherlink.com 1.10,2013-12-19 08:50:00,
2013-12-19 04:05:00,30.0,26.0,30.28,WNW,293,0.0,0.0,85,0.00,,,0.00,weatherlink.com 1.10,2013-12-19 09:05:00,
2013-12-19 04:20:00,29.9,26.0,30.29,WNW,293,0.0,0.0,86,0.00,,,0.00,weatherlink.com 1.10,2013-12-19 09:20:00,
2013-12-19 04:35:00,29.7,26.0,30.29,WNW,293,0.0,0.0,87,0.00,,,0.00,weatherlink.com 1.10,2013-12-19 09:35:00,
2013-12-19 04:50:00,29.3,26.0,30.29,WNW,293,0.0,0.0,87,0.00,,,0.00,weatherlink.com 1.10,2013-12-19 09:50:00,
2013-12-19 05:05:00,29.0,26.0,30.29,WNW,293,0.0,0.0,88,0.00,,,0.00,weatherlink.com 1.10,2013-12-19 10:05:00,
2013-12-19 05:20:00,28.9,26.0,30.29,WNW,293,0.0,0.0,89,0.00,,,0.00,weatherlink.com 1.10,2013-12-19 10:20:00,
2013-12-19 05:35:00,28.8,26.0,30.29,WNW,293,0.0,0.0,89,0.00,,,0.00,weatherlink.com 1.10,2013-12-19 10:35:00,
2013-12-19 05:50:00,28.7,26.0,30.30,WNW,293,0.0,0.0,90,0.00,,,0.00,weatherlink.com 1.10,2013-12-19 10:50:00,
2013-12-19 06:05:00,28.8,26.0,30.30,WNW,293,0.0,0.0,90,0.00,,,0.00,weatherlink.com 1.10,2013-12-19 11:05:00,
2013-12-19 06:20:00,28.6,26.0,30.30,WNW,293,0.0,0.0,90,0.00,,,0.00,weatherlink.com 1.10,2013-12-19 11:20:00,
2013-12-19 06:35:00,28.8,27.0,30.29,WNW,293,0.0,0.0,91,0.00,,,0.00,weatherlink.com 1.10,2013-12-19 11:35:00,
2013-12-19 06:50:00,28.7,26.0,30.30,WNW,293,0.0,0.0,90,0.00,,,0.00,weatherlink.com 1.10,2013-12-19 11:50:00,
2013-12-19 07:05:00,29.4,27.0,30.30,WNW,293,0.0,0.0,89,0.00,,,0.00,weatherlink.com 1.10,2013-12-19 12:05:00,
2013-12-19 07:20:00,29.3,27.0,30.30,WNW,293,0.0,0.0,89,0.00,,,0.00,weatherlink.com 1.10,2013-12-19 12:20:00,
2013-12-19 07:35:00,29.2,26.0,30.30,WNW,293,0.0,0.0,89,0.00,,,0.00,weatherlink.com 1.10,2013-12-19 12:35:00,
2013-12-19 07:50:00,29.1,26.0,30.30,WNW,293,0.0,0.0,89,0.00,,,0.00,weatherlink.com 1.10,2013-12-19 12:50:00,
2013-12-19 08:05:00,29.1,26.0,30.30,WNW,293,0.0,0.0,89,0.00,,,0.00,weatherlink.com 1.10,2013-12-19 13:05:00,
2013-12-19 08:20:00,29.4,27.0,30.30,WNW,293,0.0,0.0,90,0.00,,,0.00,weatherlink.com 1.10,2013-12-19 13:20:00,
2013-12-19 08:35:00,30.5,27.0,30.31,WNW,293,0.0,0.0,88,0.00,,,0.00,weatherlink.com 1.10,2013-12-19 13:35:00,
2013-12-19 08:50:00,31.3,28.0,30.31,WNW,293,0.0,0.0,88,0.00,,,0.00,weatherlink.com 1.10,2013-12-19 13:50:00,
2013-12-19 09:05:00,32.7,30.0,30.31,WNW,293,0.0,0.0,88,0.00,,,0.00,weatherlink.com 1.10,2013-12-19 14:05:00,
2013-12-19 09:20:00,34.1,31.0,30.32,WNW,293,0.0,0.0,89,0.00,,,0.00,weatherlink.com 1.10,2013-12-19 14:20:00,
2013-12-19 09:35:00,36.4,33.0,30.31,WNW,293,0.0,0.0,88,0.00,,,0.00,weatherlink.com 1.10,2013-12-19 14:35:00,
2013-12-19 09:51:00,39.3,35.0,30.32,WNW,293,0.0,0.0,85,0.00,,,0.00,weatherlink.com 1.10,2013-12-19 14:51:00,
2013-12-19 10:06:00,42.9,31.0,30.33,WNW,293,0.0,0.0,64,0.00,,,0.00,weatherlink.com 1.10,2013-12-19 15:06:00,
2013-12-19 10:21:00,47.3,32.0,30.32,East,94,0.0,0.0,55,0.00,,,0.00,weatherlink.com 1.10,2013-12-19 15:21:00,
2013-12-19 10:36:00,50.1,31.0,30.32,WSW,239,0.0,0.0,48,0.00,,,0.00,weatherlink.com 1.10,2013-12-19 15:36:00,
2013-12-19 10:51:00,51.8,29.0,30.32,SW,222,0.0,0.0,42,0.00,,,0.00,weatherlink.com 1.10,2013-12-19 15:51:00,
2013-12-19 11:06:00,53.3,29.0,30.32,ESE,105,0.0,2.0,40,0.00,,,0.00,weatherlink.com 1.10,2013-12-19 16:06:00,
2013-12-19 11:21:00,54.9,31.0,30.32,West,266,0.0,2.0,40,0.00,,,0.00,weatherlink.com 1.10,2013-12-19 16:21:00,
2013-12-19 11:36:00,55.9,29.0,30.31,ESE,108,1.0,2.0,36,0.00,,,0.00,weatherlink.com 1.10,2013-12-19 16:36:00,
2013-12-19 11:51:00,57.2,30.0,30.31,SSW,211,0.0,3.0,35,0.00,,,0.00,weatherlink.com 1.10,2013-12-19 16:51:00,
2013-12-19 12:06:00,57.7,31.0,30.30,ENE,67,0.0,2.0,37,0.00,,,0.00,weatherlink.com 1.10,2013-12-19 17:06:00,
2013-12-19 12:21:00,57.9,28.0,30.29,SSE,153,0.0,2.0,32,0.00,,,0.00,weatherlink.com 1.10,2013-12-19 17:21:00,
2013-12-19 12:36:00,58.4,28.0,30.27,South,181,0.0,2.0,32,0.00,,,0.00,weatherlink.com 1.10,2013-12-19 17:36:00,
2013-12-19 12:51:00,59.3,29.0,30.26,SSE,150,0.0,2.0,32,0.00,,,0.00,weatherlink.com 1.10,2013-12-19 17:51:00,
2013-12-19 13:06:00,60.0,28.0,30.25,SE,129,1.0,2.0,30,0.00,,,0.00,weatherlink.com 1.10,2013-12-19 18:06:00,
2013-12-19 13:21:00,61.4,30.0,30.25,NNE,12,0.0,1.0,30,0.00,,,0.00,weatherlink.com 1.10,2013-12-19 18:21:00,
2013-12-19 13:36:00,61.9,29.0,30.24,ESE,106,1.0,3.0,29,0.00,,,0.00,weatherlink.com 1.10,2013-12-19 18:36:00,
2013-12-19 13:51:00,62.2,29.0,30.24,NNW,339,1.0,1.0,28,0.00,,,0.00,weatherlink.com 1.10,2013-12-19 18:51:00,
2013-12-19 14:07:00,62.7,29.0,30.23,SE,125,0.0,1.0,28,0.00,,,0.00,weatherlink.com 1.10,2013-12-19 19:07:00,
2013-12-19 14:22:00,62.4,28.0,30.23,WSW,246,0.0,2.0,27,0.00,,,0.00,weatherlink.com 1.10,2013-12-19 19:22:00,
2013-12-19 14:37:00,62.3,29.0,30.22,WSW,239,0.0,2.0,28,0.00,,,0.00,weatherlink.com 1.10,2013-12-19 19:37:00,
2013-12-19 14:52:00,62.1,30.0,30.21,SE,124,0.0,2.0,30,0.00,,,0.00,weatherlink.com 1.10,2013-12-19 19:52:00,
2013-12-19 15:07:00,61.7,31.0,30.21,East,89,1.0,1.0,31,0.00,,,0.00,weatherlink.com 1.10,2013-12-19 20:07:00,
2013-12-19 15:22:00,61.0,32.0,30.21,East,96,0.0,1.0,33,0.00,,,0.00,weatherlink.com 1.10,2013-12-19 20:22:00,
2013-12-19 15:36:00,60.7,30.0,30.21,SE,137,0.0,2.0,31,0.00,,,0.00,weatherlink.com 1.10,2013-12-19 20:36:00,
2013-12-19 15:52:00,60.1,30.0,30.21,SE,137,0.0,1.0,32,0.00,,,0.00,weatherlink.com 1.10,2013-12-19 20:52:00,
2013-12-19 16:07:00,59.4,30.0,30.21,SE,139,0.0,0.0,33,0.00,,,0.00,weatherlink.com 1.10,2013-12-19 21:07:00,
2013-12-19 16:22:00,58.1,30.0,30.21,SE,139,0.0,0.0,35,0.00,,,0.00,weatherlink.com 1.10,2013-12-19 21:22:00,
2013-12-19 16:37:00,56.8,31.0,30.21,SE,139,0.0,0.0,38,0.00,,,0.00,weatherlink.com 1.10,2013-12-19 21:37:00,
2013-12-19 16:53:00,55.8,31.0,30.21,SE,139,0.0,0.0,39,0.00,,,0.00,weatherlink.com 1.10,2013-12-19 21:53:00,
2013-12-19 17:07:00,54.7,31.0,30.21,SE,139,0.0,0.0,41,0.00,,,0.00,weatherlink.com 1.10,2013-12-19 22:07:00,
2013-12-19 17:22:00,53.3,32.0,30.21,SE,139,0.0,0.0,44,0.00,,,0.00,weatherlink.com 1.10,2013-12-19 22:22:00,
2013-12-19 17:37:00,51.8,31.0,30.21,SE,139,0.0,0.0,46,0.00,,,0.00,weatherlink.com 1.10,2013-12-19 22:37:00,
2013-12-19 17:52:00,50.3,32.0,30.21,SE,140,0.0,0.0,50,0.00,,,0.00,weatherlink.com 1.10,2013-12-19 22:52:00,
2013-12-19 18:07:00,48.6,32.0,30.22,SE,139,0.0,0.0,53,0.00,,,0.00,weatherlink.com 1.10,2013-12-19 23:07:00,
2013-12-19 18:22:00,47.3,33.0,30.21,SE,139,0.0,0.0,57,0.00,,,0.00,weatherlink.com 1.10,2013-12-19 23:22:00,
2013-12-19 18:37:00,46.0,32.0,30.21,SE,140,0.0,0.0,59,0.00,,,0.00,weatherlink.com 1.10,2013-12-19 23:37:00,
2013-12-19 18:52:00,45.1,34.0,30.21,SE,140,0.0,0.0,65,0.00,,,0.00,weatherlink.com 1.10,2013-12-19 23:52:00,
2013-12-19 19:06:00,44.6,34.0,30.21,SE,139,0.0,0.0,66,0.00,,,0.00,weatherlink.com 1.10,2013-12-20 00:06:00,
2013-12-19 19:22:00,44.1,34.0,30.22,SE,140,0.0,0.0,69,0.00,,,0.00,weatherlink.com 1.10,2013-12-20 00:22:00,
2013-12-19 19:37:00,44.1,35.0,30.21,SE,140,0.0,0.0,70,0.00,,,0.00,weatherlink.com 1.10,2013-12-20 00:37:00,
2013-12-19 19:52:00,44.2,35.0,30.21,SE,139,0.0,0.0,69,0.00,,,0.00,weatherlink.com 1.10,2013-12-20 00:52:00,
2013-12-19 20:07:00,44.3,34.0,30.21,SE,139,0.0,0.0,68,0.00,,,0.00,weatherlink.com 1.10,2013-12-20 01:07:00,
2013-12-19 20:22:00,44.8,36.0,30.21,SE,140,0.0,0.0,70,0.00,,,0.00,weatherlink.com 1.10,2013-12-20 01:22:00,
2013-12-19 20:37:00,45.0,35.0,30.21,SE,139,0.0,1.0,68,0.00,,,0.00,weatherlink.com 1.10,2013-12-20 01:37:00,
2013-12-19 20:52:00,44.9,34.0,30.21,SE,139,0.0,0.0,67,0.00,,,0.00,weatherlink.com 1.10,2013-12-20 01:52:00,
2013-12-19 21:07:00,45.2,35.0,30.21,SE,139,0.0,1.0,67,0.00,,,0.00,weatherlink.com 1.10,2013-12-20 02:07:00,
2013-12-19 21:22:00,45.3,36.0,30.21,SE,140,0.0,0.0,70,0.00,,,0.00,weatherlink.com 1.10,2013-12-20 02:22:00,
2013-12-19 21:37:00,44.7,35.0,30.20,SE,140,0.0,0.0,70,0.00,,,0.00,weatherlink.com 1.10,2013-12-20 02:37:00,
2013-12-19 21:52:00,43.9,35.0,30.21,SE,140,0.0,0.0,71,0.00,,,0.00,weatherlink.com 1.10,2013-12-20 02:52:00,
2013-12-19 22:07:00,43.7,33.0,30.22,SE,139,0.0,0.0,67,0.00,,,0.00,weatherlink.com 1.10,2013-12-20 03:07:00,
2013-12-19 22:22:00,43.6,34.0,30.21,SE,140,0.0,0.0,69,0.00,,,0.00,weatherlink.com 1.10,2013-12-20 03:22:00,
2013-12-19 22:37:00,43.3,33.0,30.22,SE,140,0.0,0.0,67,0.00,,,0.00,weatherlink.com 1.10,2013-12-20 03:37:00,
2013-12-19 22:52:00,43.7,33.0,30.21,SE,139,0.0,0.0,67,0.00,,,0.00,weatherlink.com 1.10,2013-12-20 03:52:00,
2013-12-19 23:07:00,43.6,33.0,30.21,SE,139,0.0,0.0,66,0.00,,,0.00,weatherlink.com 1.10,2013-12-20 04:07:00,
2013-12-19 23:22:00,43.3,33.0,30.21,SE,140,0.0,0.0,67,0.00,,,0.00,weatherlink.com 1.10,2013-12-20 04:22:00,
2013-12-19 23:37:00,42.9,33.0,30.20,SE,140,0.0,0.0,68,0.00,,,0.00,weatherlink.com 1.10,2013-12-20 04:37:00,
2013-12-19 23:52:00,42.5,34.0,30.20,SE,139,0.0,0.0,71,0.00,,,0.00,weatherlink.com 1.10,2013-12-20 04:52:00,